Location: San Pelegr�n
(42.1868°N, 0.0079°E)
Time: 14:58:42
(UTC+00:00)

H-2A ROCKET BODY - Pass Details

Date: 24 January 2020
Orbit: 242 x 15394 km, 28.6° (Epoch: 23 February)

Event Time Altitude Azimuth Distance (km) Brightness Sun altitude
Rises 17:08:14 0° 260° (W) 11,180 9.9 -1.7°
Reaches altitude 10° 17:20:59 10° 254° (WSW) 7,173 8.9 -3.8°
Maximum altitude 17:34:59 30° 202° (SSW) 2,215 4.9 -6.2°
Drops below altitude 10° 17:39:25 10° 140° (SE) 2,194 4.2 -7.0°
Enters shadow 17:41:35 -3° 123° (ESE) 2,882 4.6 -7.4°
